Voltar ao catálogo

DELTA 1 DEB *

AtivoSSO
NORAD 8791·DEBRIS·🇺🇸 United States

Lançado Oct 2, 1966 de Vandenberg Space Force Base

Loading…

Próximas Passagens (próximas 24 horas)

TLE

AtualizadoSource: Space-Track

Época: Sep 12, 2026, 22:05 UTC

1  8791U 66087F   26255.92065138  .00000142  00000-0  98298-3 0  9992
2  8791 101.6560 236.6196 0141600  27.5212 359.0698 12.63970459755496

Acompanhe DELTA 1 DEB * em tempo real com AllMySat

Download on the App Store